Regional Weather Roundup
Issued by NWS

Home | Current Version | Previous Version | Text Only | Print | Product List | Glossary Off
Versions: 1 2 3 4 5 6 7 8 9 10 11 12 13 14 15 16 17 18 19 20 21 22 23 24 25 26 27 28 29 30 31 32 33 34 35 36 37 38 39 40 41 42 43 44 45 46 47 48 49 50

968
ASUS43 KLMK 261702
RWRKY
KENTUCKY REGIONAL WEATHER ROUNDUP
NATIONAL WEATHER SERVICE LOUISVILLE KY
1200 PM EST SUN FEB 26 2017

NOTE "FAIR" INDICATES FEW OR NO CLOUDS BELOW 12,000 FEET
WITH NO SIGNIFICANT WEATHER AND/OR OBSTRUCTIONS TO VISIBILITY.

KYZ001>023-026-027-061>063-070>075-261800-
WESTERN AND SOUTH CENTRAL KENTUCKY

CITY           SKY/WX    TMP DP  RH WIND       PRES   REMARKS
PADUCAH        SUNNY     47  19  33 S13       30.20F
HENDERSON      SUNNY     45  18  33 S13G18    30.21S
OWENSBORO      SUNNY     43  18  36 S12       30.23F
HOPKINSVILLE   SUNNY     45  16  31 S6        30.23R
BOWLING GREEN  SUNNY     44  17  33 MISG      30.25F
GLASGOW        NOT AVBL
$$

KYZ024-025-028>034-038-045-046-053-261800-
NORTH CENTRAL KENTUCKY

CITY           SKY/WX    TMP DP  RH WIND       PRES   REMARKS
LOUISVILLE/SDF MOSUNNY   43  14  31 S9        30.23F
LOUISVILLE/LOU SUNNY     41  16  36 S7        30.24F
FORT KNOX      SUNNY     41  16  36 S8        30.20F
$$

KYZ035>037-039>044-047>052-055>060-089>105-261800-
NORTHEAST KENTUCKY

CITY           SKY/WX    TMP DP  RH WIND       PRES   REMARKS
LEXINGTON      SUNNY     39  11  31 VRB6      30.23F WCI  35
COVINGTON      SUNNY     37  15  40 S9        30.21F WCI  30
FRANKFORT      SUNNY     40  13  33 SE9       30.23S WCI  34
$$

KYZ054-064>069-076>088-106>120-261800-
SOUTHEAST KENTUCKY

CITY           SKY/WX    TMP DP  RH WIND       PRES   REMARKS
JACKSON        SUNNY     38  16  40 VRB6      30.23S WCI  33
LONDON         SUNNY     38  12  34 CALM      30.24F
SOMERSET       SUNNY     37  16  41 E5        30.25F WCI  34
MIDDLESBORO    SUNNY     41  15  35 E5        30.25F
MONTICELLO     SUNNY     42  20  41 E8        30.26S
$$





USA.gov is the U.S. government's official web portal to all federal, state and local government web resources and services.